• In Hungary
  • List of Countries
  • For 7 days
  • Water Temperature
  • Satellite Maps
  • Weather Map
  • News
  • Weather Widgets
  • user-avatar
    Login

    Hourly Weather Pudasjärvi

    Today, 28 May, Monday

    Time Temperature Precipitation Wind Pressure Humidity
    00:00 +7°C° 0 mm 2 mps 762 mmHg 55%
    01:00 +6°C° 0 mm 2 mps 762 mmHg 56%
    02:00 +6°C° 0 mm 2 mps 762 mmHg 58%
    03:00 +7°C° 0 mm 2 mps 762 mmHg 55%
    04:00 +7°C° 0 mm 2 mps 762 mmHg 52%
    05:00 +8°C° 0 mm 3 mps 762 mmHg 50%
    06:00 +10°C° 0 mm 3 mps 762 mmHg 46%
    07:00 +12°C° 0 mm 3 mps 761 mmHg 43%
    08:00 +14°C° 0 mm 4 mps 761 mmHg 39%
    09:00 +15°C° 0 mm 4 mps 761 mmHg 37%
    10:00 +17°C° 0 mm 5 mps 760 mmHg 35%
    11:00 +19°C° 0 mm 5 mps 760 mmHg 33%
    12:00 +20°C° 0 mm 5 mps 760 mmHg 33%
    13:00 +21°C° 0 mm 5 mps 759 mmHg 32%
    14:00 +22°C° 0 mm 5 mps 759 mmHg 31%
    15:00 +21°C° 0 mm 5 mps 758 mmHg 32%
    16:00 +21°C° 0 mm 5 mps 758 mmHg 32%
    17:00 +21°C° 0 mm 5 mps 758 mmHg 33%
    18:00 +20°C° 0 mm 4 mps 757 mmHg 36%
    19:00 +19°C° 0 mm 4 mps 757 mmHg 39%
    20:00 +18°C° 0 mm 3 mps 757 mmHg 42%
    21:00 +16°C° 0 mm 3 mps 756 mmHg 45%
    22:00 +14°C° 0 mm 3 mps 756 mmHg 48%
    23:00 +12°C° 0 mm 3 mps 755 mmHg 51%

    Tomorrow, 29 May, Tuesday

    Time Temperature Precipitation Wind Pressure Humidity
    00:00 +11°C° 0 mm 3 mps 755 mmHg 52%
    01:00 +11°C° 0 mm 3 mps 755 mmHg 53%
    02:00 +10°C° 0 mm 3 mps 755 mmHg 54%
    03:00 +10°C° 0 mm 3 mps 754 mmHg 55%
    04:00 +11°C° 0 mm 3 mps 754 mmHg 57%
    05:00 +11°C° 0 mm 3 mps 754 mmHg 58%
    06:00 +12°C° 0 mm 3 mps 753 mmHg 57%
    07:00 +12°C° 0 mm 3 mps 753 mmHg 56%
    08:00 +13°C° 0 mm 3 mps 752 mmHg 56%
    09:00 +15°C° 0 mm 4 mps 751 mmHg 50%
    10:00 +18°C° 0 mm 4 mps 751 mmHg 45%
    11:00 +21°C° 0 mm 5 mps 750 mmHg 40%
    12:00 +22°C° 0 mm 6 mps 749 mmHg 38%
    13:00 +23°C° 0 mm 6 mps 749 mmHg 36%
    14:00 +23°C° 0 mm 7 mps 748 mmHg 34%
    15:00 +23°C° 0 mm 7 mps 748 mmHg 31%
    16:00 +23°C° 0 mm 7 mps 748 mmHg 28%
    17:00 +23°C° 0 mm 7 mps 747 mmHg 25%
    18:00 +21°C° 0 mm 6 mps 748 mmHg 28%
    19:00 +20°C° 0 mm 6 mps 748 mmHg 30%
    20:00 +17°C° 0 mm 6 mps 748 mmHg 33%
    21:00 +15°C° 0 mm 5 mps 748 mmHg 38%
    22:00 +14°C° 0 mm 4 mps 748 mmHg 44%
    23:00 +12°C° 0 mm 4 mps 749 mmHg 50%

    Day after tomorrow, 30 May, Wednesday

    Time Temperature Precipitation Wind Pressure Humidity
    00:00 +11°C° 0 mm 4 mps 749 mmHg 51%
    01:00 +10°C° 0 mm 5 mps 749 mmHg 52%
    02:00 +10°C° 0 mm 5 mps 749 mmHg 53%
    03:00 +10°C° 0 mm 5 mps 749 mmHg 53%
    04:00 +10°C° 0 mm 6 mps 749 mmHg 52%
    05:00 +10°C° 0 mm 6 mps 749 mmHg 51%
    06:00 +11°C° 0 mm 6 mps 749 mmHg 50%
    07:00 +11°C° 0 mm 7 mps 749 mmHg 48%
    08:00 +11°C° 0 mm 7 mps 749 mmHg 47%
    09:00 +11°C° 0 mm 7 mps 749 mmHg 48%
    10:00 +11°C° 0 mm 7 mps 750 mmHg 50%
    11:00 +11°C° 0 mm 7 mps 750 mmHg 51%
    12:00 +11°C° 0 mm 6 mps 751 mmHg 52%
    13:00 +11°C° 0 mm 6 mps 751 mmHg 53%
    14:00 +11°C° 0 mm 6 mps 752 mmHg 53%
    15:00 +11°C° 0.1 mm 6 mps 753 mmHg 55%
    16:00 +11°C° 0.1 mm 6 mps 753 mmHg 57%
    17:00 +11°C° 0.1 mm 6 mps 754 mmHg 59%
    18:00 +12°C° 0 mm 5 mps 755 mmHg 57%
    19:00 +10°C° 0 mm 5 mps 756 mmHg 54%
    20:00 +9°C° 0 mm 5 mps 757 mmHg 52%
    21:00 +8°C° 0 mm 4 mps 757 mmHg 55%
    22:00 +7°C° 0 mm 4 mps 758 mmHg 57%
    23:00 +5°C° 0 mm 3 mps 759 mmHg 60%

    31 May, Thursday

    Time Temperature Precipitation Wind Pressure Humidity
    00:00 +4°C° 0 mm 3 mps 759 mmHg 61%
    01:00 +3°C° 0 mm 3 mps 760 mmHg 63%
    02:00 +3°C° 0 mm 2 mps 760 mmHg 65%
    03:00 +4°C° 0 mm 2 mps 761 mmHg 62%
    04:00 +4°C° 0 mm 2 mps 761 mmHg 59%
    05:00 +3°C° 0 mm 3 mps 761 mmHg 57%
    06:00 +5°C° 0 mm 2 mps 761 mmHg 52%
    07:00 +6°C° 0 mm 2 mps 761 mmHg 47%
    08:00 +7°C° 0 mm 2 mps 761 mmHg 42%
    09:00 +8°C° 0 mm 2 mps 761 mmHg 38%
    10:00 +10°C° 0 mm 2 mps 761 mmHg 34%
    11:00 +12°C° 0 mm 2 mps 761 mmHg 30%
    12:00 +13°C° 0 mm 2 mps 761 mmHg 28%
    13:00 +14°C° 0 mm 2 mps 761 mmHg 27%
    14:00 +14°C° 0 mm 2 mps 761 mmHg 25%
    15:00 +15°C° 0 mm 2 mps 760 mmHg 26%
    16:00 +15°C° 0 mm 2 mps 760 mmHg 26%
    17:00 +15°C° 0 mm 2 mps 760 mmHg 26%
    18:00 +14°C° 0 mm 2 mps 760 mmHg 30%
    19:00 +14°C° 0 mm 1 mps 760 mmHg 34%
    20:00 +13°C° 0 mm 1 mps 759 mmHg 38%
    21:00 +11°C° 0 mm 1 mps 759 mmHg 43%
    22:00 +9°C° 0 mm 1 mps 760 mmHg 48%
    23:00 +7°C° 0 mm 1 mps 760 mmHg 52%

    1 June, Friday

    Time Temperature Precipitation Wind Pressure Humidity
    00:00 +7°C° 0 mm 1 mps 760 mmHg 54%
    01:00 +6°C° 0 mm 1 mps 760 mmHg 56%
    02:00 +6°C° 0 mm 1 mps 759 mmHg 58%
    03:00 +7°C° 0 mm 1 mps 759 mmHg 55%
    04:00 +7°C° 0 mm 1 mps 759 mmHg 52%
    05:00 +7°C° 0 mm 2 mps 759 mmHg 50%
    06:00 +9°C° 0 mm 2 mps 759 mmHg 45%
    07:00 +11°C° 0 mm 3 mps 758 mmHg 40%
    08:00 +12°C° 0 mm 3 mps 758 mmHg 35%
    09:00 +14°C° 0 mm 3 mps 758 mmHg 32%
    10:00 +15°C° 0 mm 4 mps 757 mmHg 30%
    11:00 +18°C° 0 mm 4 mps 757 mmHg 27%
    12:00 +18°C° 0 mm 4 mps 756 mmHg 27%
    13:00 +19°C° 0 mm 4 mps 756 mmHg 27%
    14:00 +20°C° 0 mm 5 mps 755 mmHg 27%
    15:00 +20°C° 0 mm 5 mps 755 mmHg 28%
    16:00 +19°C° 0 mm 5 mps 754 mmHg 28%
    17:00 +19°C° 0 mm 5 mps 754 mmHg 29%
    18:00 +18°C° 0 mm 4 mps 753 mmHg 32%
    19:00 +17°C° 0 mm 4 mps 753 mmHg 34%
    20:00 +14°C° 0 mm 3 mps 752 mmHg 37%
    21:00 +13°C° 0 mm 3 mps 752 mmHg 41%
    22:00 +12°C° 0 mm 3 mps 752 mmHg 46%
    23:00 +10°C° 0 mm 3 mps 751 mmHg 50%

    2 June, Saturday

    Time Temperature Precipitation Wind Pressure Humidity
    00:00 +10°C° 0 mm 3 mps 751 mmHg 55%
    01:00 +10°C° 0 mm 3 mps 751 mmHg 59%
    02:00 +10°C° 0 mm 3 mps 750 mmHg 63%
    03:00 +10°C° 0 mm 3 mps 750 mmHg 65%
    04:00 +10°C° 0 mm 3 mps 750 mmHg 67%
    05:00 +10°C° 0 mm 2 mps 750 mmHg 68%
    06:00 +10°C° 0 mm 3 mps 750 mmHg 67%
    07:00 +11°C° 0 mm 3 mps 750 mmHg 65%
    08:00 +12°C° 0 mm 3 mps 750 mmHg 63%
    09:00 +14°C° 0 mm 4 mps 750 mmHg 57%
    10:00 +18°C° 0 mm 4 mps 749 mmHg 51%
    11:00 +20°C° 0 mm 5 mps 749 mmHg 44%
    12:00 +20°C° 0 mm 5 mps 749 mmHg 44%
    13:00 +20°C° 0 mm 5 mps 749 mmHg 43%
    14:00 +20°C° 0 mm 5 mps 748 mmHg 43%
    15:00 +20°C° 0 mm 5 mps 748 mmHg 45%
    16:00 +20°C° 0 mm 5 mps 748 mmHg 47%
    17:00 +19°C° 0 mm 5 mps 747 mmHg 49%
    18:00 +18°C° 0 mm 4 mps 747 mmHg 52%
    19:00 +17°C° 0 mm 4 mps 747 mmHg 56%
    20:00 +16°C° 0 mm 3 mps 747 mmHg 59%
    21:00 +14°C° 0 mm 3 mps 747 mmHg 63%
    22:00 +13°C° 0 mm 2 mps 747 mmHg 67%
    23:00 +12°C° 0 mm 2 mps 747 mmHg 71%
    Show more